OAL023 SUMU-SAMM

Flight info

Callsign OAL023
Flight time N/A
Altitude 28000
Route DAGUS UL405 UGIMI DCT PTA DCT EZE UW68 GPI UM783 USVER
Aircraft B722/M-SDFGHRWY/C

Departure

Time 2026-05-06 10:59
Airport Carrasco General Cesáreo L. Berisso International Airport (SUMU)

Arrival

Time N/A
Airport Comodoro D.R. Salomón Airport (SAMM)
Time Latitude Longitude Altitude Speed Heading
2026-05-06 10:47 -34.84199 -56.02838 66 ft 0 kts
2026-05-06 10:54 -34.84184 -56.02839 64 ft 5 kts 358°
2026-05-06 10:54 -34.84149 -56.02839 59 ft 5 kts
2026-05-06 10:54 -34.84107 -56.02837 62 ft 7 kts
2026-05-06 10:55 -34.84067 -56.02822 65 ft 5 kts 26°
2026-05-06 10:55 -34.84038 -56.02810 68 ft 3 kts 349°
2026-05-06 10:55 -34.84022 -56.02823 73 ft 3 kts 305°
2026-05-06 10:55 -34.84014 -56.02872 72 ft 11 kts 271°
2026-05-06 10:56 -34.84012 -56.02995 70 ft 17 kts 265°
2026-05-06 10:56 -34.84086 -56.03066 60 ft 16 kts 160°
2026-05-06 10:56 -34.84169 -56.03034 63 ft 8 kts 215°
2026-05-06 10:56 -34.84160 -56.03074 59 ft 6 kts 349°
2026-05-06 10:57 -34.84138 -56.03076 63 ft 0 kts 356°
2026-05-06 10:58 -34.84123 -56.03077 56 ft 15 kts 358°
2026-05-06 10:58 -34.83810 -56.03081 69 ft 75 kts 359°
2026-05-06 10:58 -34.83101 -56.03090 94 ft 127 kts 360°
2026-05-06 10:58 -34.82093 -56.03093 257 ft 153 kts
2026-05-06 10:59 -34.80961 -56.03143 571 ft 172 kts 359°
2026-05-06 10:59 -34.79717 -56.03210 988 ft 188 kts 359°
2026-05-06 10:59 -34.78326 -56.03274 1440 ft 214 kts 359°
2026-05-06 10:59 -34.76744 -56.03405 1938 ft 243 kts 347°
2026-05-06 11:00 -34.75339 -56.04540 2888 ft 246 kts 311°
2026-05-06 11:00 -34.74485 -56.06349 3870 ft 252 kts 286°
2026-05-06 11:00 -34.74372 -56.08471 4876 ft 255 kts 262°
2026-05-06 11:00 -34.74915 -56.10516 5777 ft 260 kts 251°
2026-05-06 11:01 -34.75547 -56.12630 6611 ft 265 kts 252°
2026-05-06 11:01 -34.76170 -56.14722 7434 ft 268 kts 251°
2026-05-06 11:01 -34.76822 -56.16862 8245 ft 272 kts 251°
2026-05-06 11:01 -34.77485 -56.19033 9043 ft 275 kts 251°
2026-05-06 11:02 -34.78150 -56.21228 9835 ft 279 kts 251°
2026-05-06 11:02 -34.78826 -56.23462 10532 ft 284 kts 251°
2026-05-06 11:02 -34.79511 -56.25721 11405 ft 285 kts 251°
2026-05-06 11:02 -34.80198 -56.27992 12250 ft 289 kts 251°
2026-05-06 11:03 -34.80897 -56.30303 13049 ft 293 kts 251°
2026-05-06 11:03 -34.81607 -56.32652 13802 ft 298 kts 252°
2026-05-06 11:03 -34.82321 -56.35020 14457 ft 301 kts 252°
2026-05-06 11:03 -34.83040 -56.37402 15228 ft 299 kts 252°
2026-05-06 11:04 -34.83757 -56.39777 15970 ft 299 kts 252°
2026-05-06 11:04 -34.84473 -56.42159 16693 ft 300 kts 252°
2026-05-06 11:04 -34.85189 -56.44539 17409 ft 300 kts 252°
2026-05-06 11:04 -34.85906 -56.46924 18125 ft 300 kts 252°
2026-05-06 11:05 -34.86625 -56.49315 18754 ft 301 kts 253°
2026-05-06 11:05 -34.87343 -56.51710 19337 ft 302 kts 253°
2026-05-06 11:05 -34.88065 -56.54116 19911 ft 303 kts 253°
2026-05-06 11:05 -34.88790 -56.56536 20479 ft 305 kts 253°
2026-05-06 11:06 -34.89518 -56.58967 21040 ft 306 kts 253°
2026-05-06 11:06 -34.90249 -56.61413 21581 ft 308 kts 253°
2026-05-06 11:06 -34.90985 -56.63873 22159 ft 309 kts 253°
2026-05-06 11:06 -34.91722 -56.66343 22692 ft 311 kts 254°
2026-05-06 11:07 -34.92463 -56.68825 23231 ft 313 kts 254°
2026-05-06 11:07 -34.93207 -56.71320 23730 ft 314 kts 254°
2026-05-06 11:07 -34.93954 -56.73828 24175 ft 315 kts 254°
2026-05-06 11:07 -34.94703 -56.76343 24625 ft 316 kts 254°
2026-05-06 11:08 -34.95452 -56.78864 25070 ft 317 kts 254°
2026-05-06 11:08 -34.96203 -56.81393 25502 ft 318 kts 253°
2026-05-06 11:08 -34.96957 -56.83934 25934 ft 319 kts 253°
2026-05-06 11:08 -34.97712 -56.86483 26393 ft 319 kts 253°
2026-05-06 11:09 -34.98250 -56.89093 26793 ft 317 kts 265°
2026-05-06 11:09 -34.98364 -56.91781 27193 ft 318 kts 271°
2026-05-06 11:09 -34.98280 -56.94478 27600 ft 319 kts 272°
2026-05-06 11:09 -34.98214 -56.97187 27983 ft 321 kts 270°
2026-05-06 11:10 -34.98226 -56.99957 27992 ft 333 kts 269°
2026-05-06 11:10 -34.98245 -57.02831 27997 ft 345 kts 270°
2026-05-06 11:10 -34.98226 -57.05807 27993 ft 357 kts 271°
2026-05-06 11:10 -34.98199 -57.08878 27992 ft 369 kts 270°
2026-05-06 11:11 -34.98187 -57.12045 27990 ft 379 kts 270°
2026-05-06 11:11 -34.98179 -57.15270 27992 ft 390 kts 270°
2026-05-06 11:11 -34.98161 -57.18617 27984 ft 399 kts 270°
2026-05-06 11:11 -34.98139 -57.21996 27983 ft 398 kts 270°
2026-05-06 11:12 -34.98122 -57.25364 27983 ft 397 kts 270°
2026-05-06 11:12 -34.98104 -57.28728 27977 ft 397 kts 270°
2026-05-06 11:12 -34.98082 -57.32097 27977 ft 397 kts 270°
2026-05-06 11:12 -34.98060 -57.35458 27976 ft 397 kts 270°
2026-05-06 11:13 -34.98038 -57.38826 27973 ft 397 kts 270°
2026-05-06 11:13 -34.98015 -57.42183 27968 ft 395 kts 270°
2026-05-06 11:13 -34.97990 -57.45534 27967 ft 396 kts 270°
2026-05-06 11:13 -34.97965 -57.48891 27965 ft 396 kts 270°
2026-05-06 11:14 -34.97939 -57.52244 27961 ft 396 kts 270°
2026-05-06 11:14 -34.97912 -57.55595 27960 ft 396 kts 270°
2026-05-06 11:14 -34.97884 -57.58953 27959 ft 396 kts 270°
2026-05-06 11:14 -34.97855 -57.62312 27955 ft 396 kts 270°
2026-05-06 11:15 -34.97826 -57.65663 27974 ft 396 kts 271°
2026-05-06 11:15 -34.97795 -57.69009 27953 ft 392 kts 271°
2026-05-06 11:15 -34.97763 -57.72328 27948 ft 392 kts 271°
2026-05-06 11:15 -34.97731 -57.75660 27948 ft 393 kts 271°
2026-05-06 11:16 -34.97698 -57.78991 27948 ft 393 kts 271°
2026-05-06 11:16 -34.97664 -57.82326 27932 ft 394 kts 271°
2026-05-06 11:16 -34.97628 -57.85683 27941 ft 398 kts 271°
2026-05-06 11:16 -34.97557 -57.89048 27940 ft 397 kts 275°
2026-05-06 11:17 -34.97087 -57.92350 27944 ft 397 kts 282°
2026-05-06 11:17 -34.96326 -57.95594 27952 ft 396 kts 286°
2026-05-06 11:17 -34.95444 -57.98774 27956 ft 395 kts 286°
2026-05-06 11:17 -34.94658 -58.01984 27952 ft 395 kts 283°
2026-05-06 11:18 -34.93960 -58.05226 27952 ft 395 kts 283°
2026-05-06 11:18 -34.93220 -58.08454 27951 ft 396 kts 285°
2026-05-06 11:18 -34.92425 -58.11659 27950 ft 396 kts 285°
2026-05-06 11:18 -34.91655 -58.14829 27933 ft 396 kts 284°
2026-05-06 11:19 -34.90894 -58.18102 27928 ft 395 kts 284°
2026-05-06 11:19 -34.90149 -58.21279 27932 ft 395 kts 284°
2026-05-06 11:19 -34.89379 -58.24474 27924 ft 393 kts 285°
2026-05-06 11:19 -34.88610 -58.27669 27909 ft 395 kts 285°
2026-05-06 11:20 -34.87841 -58.30902 27912 ft 398 kts 285°
2026-05-06 11:20 -34.87074 -58.34125 27915 ft 397 kts 285°
2026-05-06 11:20 -34.86296 -58.37359 27915 ft 397 kts 285°
2026-05-06 11:20 -34.85520 -58.40586 27915 ft 397 kts 285°
2026-05-06 11:21 -34.84748 -58.43809 27915 ft 397 kts 285°
2026-05-06 11:21 -34.83974 -58.47027 27915 ft 397 kts 285°
2026-05-06 11:21 -34.83206 -58.50252 27928 ft 395 kts 284°
2026-05-06 11:21 -34.82809 -58.53540 27920 ft 394 kts 272°
2026-05-06 11:22 -34.83013 -58.56876 27930 ft 397 kts 264°
2026-05-06 11:22 -34.83547 -58.60173 27930 ft 399 kts 259°
2026-05-06 11:22 -34.84279 -58.63442 27925 ft 399 kts 257°
2026-05-06 11:22 -34.84967 -58.66710 27926 ft 398 kts 260°
2026-05-06 11:23 -34.85537 -58.70005 27922 ft 398 kts 261°
2026-05-06 11:23 -34.86111 -58.73303 27922 ft 398 kts 260°
2026-05-06 11:23 -34.86752 -58.76589 27921 ft 399 kts 259°
2026-05-06 11:23 -34.87394 -58.79863 27919 ft 398 kts 260°
2026-05-06 11:24 -34.88002 -58.83154 27918 ft 398 kts 260°
2026-05-06 11:24 -34.88602 -58.86451 27917 ft 398 kts 260°
2026-05-06 11:24 -34.89220 -58.89736 27915 ft 398 kts 260°
2026-05-06 11:24 -34.89842 -58.93023 27914 ft 398 kts 260°
2026-05-06 11:25 -34.90451 -58.96304 27915 ft 398 kts 260°
2026-05-06 11:25 -34.91060 -58.99605 27913 ft 398 kts 260°
2026-05-06 11:25 -34.91672 -59.02894 27915 ft 398 kts 260°
2026-05-06 11:25 -34.92284 -59.06183 27905 ft 398 kts 260°
2026-05-06 11:26 -34.92891 -59.09467 27907 ft 398 kts 260°
2026-05-06 11:26 -34.93498 -59.12760 27906 ft 398 kts 260°
2026-05-06 11:26 -34.94105 -59.16046 27904 ft 398 kts 260°
2026-05-06 11:26 -34.94709 -59.19327 27904 ft 398 kts 260°
2026-05-06 11:27 -34.95314 -59.22619 27901 ft 398 kts 260°
2026-05-06 11:27 -34.95918 -59.25909 27901 ft 398 kts 260°
2026-05-06 11:27 -34.96521 -59.29199 27902 ft 398 kts 260°
2026-05-06 11:27 -34.97124 -59.32491 27912 ft 399 kts 260°
2026-05-06 11:28 -34.97728 -59.35801 27905 ft 399 kts 261°
2026-05-06 11:28 -34.98329 -59.39096 27902 ft 398 kts 261°
2026-05-06 11:28 -34.98930 -59.42394 27902 ft 398 kts 261°
2026-05-06 11:28 -34.99529 -59.45697 27902 ft 399 kts 261°
2026-05-06 11:29 -35.00129 -59.48997 27902 ft 399 kts 261°
2026-05-06 11:29 -35.00726 -59.52295 27902 ft 399 kts 261°
2026-05-06 11:29 -35.01316 -59.55552 27902 ft 399 kts 261°
2026-05-06 11:29 -35.01911 -59.58852 27902 ft 399 kts 261°
2026-05-06 11:30 -35.02506 -59.62148 27900 ft 396 kts 261°
2026-05-06 11:30 -35.03093 -59.65406 27898 ft 393 kts 261°
2026-05-06 11:30 -35.03677 -59.68667 27895 ft 394 kts 261°
2026-05-06 11:30 -35.04263 -59.71936 27896 ft 394 kts 261°
2026-05-06 11:31 -35.04848 -59.75199 27896 ft 394 kts 261°
2026-05-06 11:31 -35.05432 -59.78462 27896 ft 394 kts 261°
2026-05-06 11:31 -35.06014 -59.81731 27896 ft 394 kts 261°
2026-05-06 11:31 -35.06598 -59.85004 27894 ft 394 kts 261°
2026-05-06 11:32 -35.07179 -59.88271 27894 ft 394 kts 261°
2026-05-06 11:32 -35.07759 -59.91539 27899 ft 394 kts 261°
2026-05-06 11:32 -35.08339 -59.94806 27896 ft 394 kts 261°
2026-05-06 11:32 -35.08917 -59.98076 27896 ft 394 kts 261°
2026-05-06 11:33 -35.09494 -60.01344 27896 ft 394 kts 261°
2026-05-06 11:33 -35.10071 -60.04613 27896 ft 394 kts 261°
2026-05-06 11:33 -35.10647 -60.07879 27896 ft 394 kts 261°
2026-05-06 11:33 -35.11220 -60.11141 27896 ft 394 kts 261°
2026-05-06 11:34 -35.11795 -60.14419 27893 ft 394 kts 261°
2026-05-06 11:34 -35.12367 -60.17685 27905 ft 394 kts 261°
2026-05-06 11:34 -35.12941 -60.20963 27895 ft 394 kts 262°
2026-05-06 11:34 -35.13512 -60.24233 27893 ft 395 kts 262°
2026-05-06 11:35 -35.14077 -60.27474 27894 ft 394 kts 262°
2026-05-06 11:35 -35.14647 -60.30748 27897 ft 394 kts 262°
2026-05-06 11:35 -35.15216 -60.34024 27897 ft 394 kts 262°
2026-05-06 11:35 -35.15785 -60.37304 27897 ft 394 kts 262°
2026-05-06 11:36 -35.16354 -60.40578 27896 ft 394 kts 262°
2026-05-06 11:36 -35.16921 -60.43858 27896 ft 394 kts 262°
2026-05-06 11:36 -35.17489 -60.47142 27901 ft 395 kts 262°
2026-05-06 11:36 -35.18060 -60.50460 27895 ft 394 kts 262°
2026-05-06 11:37 -35.18435 -60.52637 27891 ft 394 kts 262°
2026-05-06 11:37 -35.18998 -60.55914 27892 ft 394 kts 262°
2026-05-06 11:37 -35.19744 -60.60260 27892 ft 394 kts 262°
2026-05-06 11:37 -35.20124 -60.62477 27892 ft 394 kts 262°
2026-05-06 11:38 -35.20868 -60.66825 27888 ft 394 kts 262°
2026-05-06 11:38 -35.21427 -60.70102 27888 ft 394 kts 262°
2026-05-06 11:38 -35.21805 -60.72320 27888 ft 394 kts 262°
2026-05-06 11:38 -35.22365 -60.75607 27920 ft 394 kts 263°
2026-05-06 11:39 -35.22921 -60.78875 27886 ft 391 kts 263°
2026-05-06 11:39 -35.23473 -60.82129 27880 ft 391 kts 263°
2026-05-06 11:39 -35.24023 -60.85388 27874 ft 392 kts 263°
2026-05-06 11:39 -35.24575 -60.88654 27883 ft 392 kts 263°
2026-05-06 11:40 -35.25125 -60.91910 27881 ft 392 kts 263°
2026-05-06 11:40 -35.25676 -60.95175 27880 ft 391 kts 263°
2026-05-06 11:40 -35.26224 -60.98440 27881 ft 391 kts 263°
2026-05-06 11:40 -35.26772 -61.01703 27873 ft 392 kts 263°
2026-05-06 11:41 -35.27319 -61.04964 27893 ft 392 kts 263°
2026-05-06 11:41 -35.27865 -61.08227 27887 ft 390 kts 263°
2026-05-06 11:41 -35.28407 -61.11477 27884 ft 391 kts 263°
2026-05-06 11:41 -35.28950 -61.14737 27881 ft 391 kts 263°
2026-05-06 11:42 -35.29493 -61.17998 27876 ft 391 kts 263°
2026-05-06 11:42 -35.30035 -61.21256 27881 ft 391 kts 263°
2026-05-06 11:42 -35.30575 -61.24516 27873 ft 391 kts 263°
2026-05-06 11:42 -35.31114 -61.27776 27878 ft 391 kts 263°
2026-05-06 11:43 -35.31654 -61.31038 27877 ft 391 kts 263°
2026-05-06 11:43 -35.32192 -61.34299 27900 ft 391 kts 263°
2026-05-06 11:43 -35.32729 -61.37562 27876 ft 391 kts 263°
2026-05-06 11:44 -35.33795 -61.44051 27874 ft 391 kts 263°
2026-05-06 11:44 -35.34336 -61.47353 27869 ft 391 kts 263°
2026-05-06 11:44 -35.34863 -61.50578 27868 ft 391 kts 263°
2026-05-06 11:44 -35.35396 -61.53846 27868 ft 391 kts 263°
2026-05-06 11:45 -35.35929 -61.57115 27870 ft 391 kts 263°
2026-05-06 11:45 -35.36460 -61.60375 27868 ft 391 kts 263°
2026-05-06 11:45 -35.36990 -61.63644 27868 ft 391 kts 263°
2026-05-06 11:45 -35.37519 -61.66911 27868 ft 391 kts 263°
2026-05-06 11:46 -35.38048 -61.70179 27868 ft 391 kts 263°
2026-05-06 11:46 -35.38575 -61.73445 27868 ft 391 kts 263°
2026-05-06 11:46 -35.39101 -61.76710 27868 ft 391 kts 263°
2026-05-06 11:46 -35.39627 -61.79981 27868 ft 391 kts 263°
2026-05-06 11:47 -35.40152 -61.83250 27870 ft 391 kts 263°
2026-05-06 11:47 -35.40675 -61.86515 27869 ft 391 kts 263°
2026-05-06 11:47 -35.41199 -61.89789 27869 ft 391 kts 263°
2026-05-06 11:47 -35.41722 -61.93067 27876 ft 391 kts 264°
2026-05-06 11:48 -35.42243 -61.96338 27865 ft 391 kts 264°
2026-05-06 11:48 -35.42763 -61.99610 27866 ft 391 kts 264°
2026-05-06 11:48 -35.43283 -62.02882 27864 ft 391 kts 264°
2026-05-06 11:48 -35.43801 -62.06154 27859 ft 391 kts 264°
2026-05-06 11:49 -35.44320 -62.09433 27861 ft 391 kts 264°
2026-05-06 11:49 -35.44836 -62.12704 27861 ft 391 kts 264°
2026-05-06 11:49 -35.45352 -62.15977 27858 ft 391 kts 264°
2026-05-06 11:49 -35.45868 -62.19252 27857 ft 391 kts 264°
2026-05-06 11:50 -35.46382 -62.22529 27857 ft 391 kts 264°
2026-05-06 11:50 -35.46896 -62.25808 27851 ft 391 kts 264°
2026-05-06 11:50 -35.47408 -62.29079 27846 ft 391 kts 264°
2026-05-06 11:50 -35.47919 -62.32354 27844 ft 391 kts 264°
2026-05-06 11:51 -35.48429 -62.35631 27843 ft 391 kts 264°
2026-05-06 11:51 -35.48940 -62.38913 27847 ft 391 kts 264°
2026-05-06 11:51 -35.49448 -62.42184 27838 ft 391 kts 264°
2026-05-06 11:51 -35.49950 -62.45421 27842 ft 391 kts 264°
2026-05-06 11:52 -35.50463 -62.48738 27846 ft 391 kts 264°
2026-05-06 11:52 -35.50963 -62.51980 27843 ft 391 kts 264°
2026-05-06 11:52 -35.51469 -62.55256 27847 ft 391 kts 265°
2026-05-06 11:52 -35.51974 -62.58540 27848 ft 391 kts 265°
2026-05-06 11:53 -35.52477 -62.61816 27845 ft 391 kts 265°
2026-05-06 11:53 -35.52979 -62.65099 27843 ft 391 kts 265°
2026-05-06 11:53 -35.53480 -62.68372 27843 ft 391 kts 265°
2026-05-06 11:53 -35.53983 -62.71666 27844 ft 391 kts 265°
2026-05-06 11:54 -35.54484 -62.74951 27843 ft 391 kts 265°
2026-05-06 11:54 -35.54983 -62.78237 27843 ft 391 kts 265°
2026-05-06 11:54 -35.55482 -62.81518 27840 ft 391 kts 265°
2026-05-06 11:54 -35.55978 -62.84799 27837 ft 392 kts 265°
2026-05-06 11:55 -35.56475 -62.88080 27840 ft 391 kts 265°
2026-05-06 11:55 -35.56973 -62.91378 27838 ft 391 kts 265°
2026-05-06 11:55 -35.57466 -62.94654 27839 ft 392 kts 265°
2026-05-06 11:55 -35.57962 -62.97951 27840 ft 392 kts 265°
2026-05-06 11:56 -35.58455 -63.01234 27837 ft 391 kts 265°
2026-05-06 11:56 -35.58946 -63.04516 27837 ft 391 kts 265°
2026-05-06 11:56 -35.59439 -63.07812 27837 ft 391 kts 265°
2026-05-06 11:56 -35.59930 -63.11101 27839 ft 391 kts 265°
2026-05-06 11:57 -35.60418 -63.14378 27846 ft 392 kts 265°
2026-05-06 11:57 -35.60907 -63.17673 27884 ft 389 kts 265°
2026-05-06 11:57 -35.61393 -63.20936 27811 ft 386 kts 265°
2026-05-06 11:57 -35.61871 -63.24162 26815 ft 387 kts 265°
2026-05-06 11:58 -35.62347 -63.27406 26066 ft 387 kts 265°
2026-05-06 11:58 -35.62830 -63.30656 25436 ft 383 kts 265°
2026-05-06 11:58 -35.63304 -63.33879 24733 ft 382 kts 265°
2026-05-06 11:58 -35.63758 -63.37091 24075 ft 381 kts 265°
2026-05-06 11:59 -35.64202 -63.40293 23420 ft 379 kts 265°
2026-05-06 11:59 -35.64652 -63.43481 22705 ft 378 kts 265°
2026-05-06 11:59 -35.65104 -63.46652 22007 ft 376 kts 265°
2026-05-06 11:59 -35.65547 -63.49812 21335 ft 373 kts 266°
2026-05-06 12:00 -35.65983 -63.52935 20708 ft 371 kts 266°
2026-05-06 12:00 -35.66421 -63.56055 20089 ft 368 kts 266°
2026-05-06 12:00 -35.66853 -63.59145 19477 ft 366 kts 266°
2026-05-06 12:00 -35.67282 -63.62226 18870 ft 364 kts 266°
2026-05-06 12:01 -35.67708 -63.65288 18291 ft 363 kts 266°
2026-05-06 12:01 -35.68132 -63.68337 17667 ft 361 kts 266°
2026-05-06 12:01 -35.68552 -63.71368 17076 ft 358 kts 266°
2026-05-06 12:01 -35.68970 -63.74378 16525 ft 355 kts 266°
2026-05-06 12:02 -35.69283 -63.77364 15904 ft 351 kts 271°
2026-05-06 12:02 -35.69298 -63.80340 15349 ft 345 kts 277°
2026-05-06 12:02 -35.69141 -63.83265 14808 ft 342 kts 277°
2026-05-06 12:02 -35.69052 -63.86191 14270 ft 342 kts 274°
2026-05-06 12:03 -35.69068 -63.89108 13729 ft 341 kts 273°
2026-05-06 12:03 -35.69065 -63.91968 13186 ft 338 kts 275°
2026-05-06 12:03 -35.69009 -63.94857 12630 ft 337 kts 275°
2026-05-06 12:03 -35.68959 -63.97687 12497 ft 321 kts 274°
2026-05-06 12:04 -35.68938 -64.00312 12466 ft 297 kts 275°
2026-05-06 12:04 -35.68911 -64.02774 12420 ft 277 kts 275°
2026-05-06 12:04 -35.68875 -64.05070 12375 ft 261 kts 275°
2026-05-06 12:04 -35.68843 -64.07253 12110 ft 255 kts 275°
2026-05-06 12:05 -35.68809 -64.09444 11671 ft 256 kts 275°
2026-05-06 12:05 -35.68780 -64.11624 11293 ft 255 kts 275°
2026-05-06 12:05 -35.68750 -64.13787 10895 ft 255 kts 274°
2026-05-06 12:05 -35.68719 -64.15992 10502 ft 255 kts 274°
2026-05-06 12:06 -35.68687 -64.18169 10124 ft 255 kts 274°
2026-05-06 12:06 -35.68655 -64.20350 9812 ft 252 kts 274°
2026-05-06 12:06 -35.68628 -64.22443 9802 ft 238 kts 274°
2026-05-06 12:06 -35.68597 -64.24436 9803 ft 230 kts 274°
2026-05-06 12:07 -35.68565 -64.26402 9810 ft 230 kts 274°
2026-05-06 12:07 -35.68535 -64.28368 9813 ft 231 kts 274°
2026-05-06 12:07 -35.68505 -64.30341 9811 ft 231 kts 274°
2026-05-06 12:07 -35.68474 -64.32317 9811 ft 231 kts 274°
2026-05-06 12:08 -35.68443 -64.34286 9815 ft 230 kts 274°
2026-05-06 12:08 -35.68412 -64.36256 9822 ft 231 kts 274°
2026-05-06 12:08 -35.68378 -64.38262 9821 ft 236 kts 273°
2026-05-06 12:08 -35.68347 -64.40275 9825 ft 235 kts 273°
2026-05-06 12:09 -35.68314 -64.42283 9823 ft 235 kts 273°
2026-05-06 12:09 -35.68281 -64.44295 9824 ft 235 kts 273°
2026-05-06 12:09 -35.68247 -64.46309 9824 ft 235 kts 273°
2026-05-06 12:09 -35.68212 -64.48319 9824 ft 235 kts 273°
2026-05-06 12:10 -35.68179 -64.50327 9824 ft 235 kts 273°
2026-05-06 12:10 -35.68144 -64.52341 9824 ft 235 kts 273°
2026-05-06 12:10 -35.68109 -64.54354 9825 ft 235 kts 273°
2026-05-06 12:10 -35.68073 -64.56367 9824 ft 235 kts 273°
2026-05-06 12:11 -35.68038 -64.58375 9825 ft 235 kts 273°
2026-05-06 12:11 -35.68002 -64.60386 9825 ft 235 kts 273°
2026-05-06 12:11 -35.67966 -64.62397 9822 ft 235 kts 273°
2026-05-06 12:11 -35.67929 -64.64406 9824 ft 235 kts 273°
2026-05-06 12:12 -35.67892 -64.66417 9825 ft 235 kts 273°
2026-05-06 12:12 -35.67854 -64.68428 9825 ft 235 kts 273°
2026-05-06 12:12 -35.67817 -64.70438 9826 ft 235 kts 273°
2026-05-06 12:12 -35.67779 -64.72451 9825 ft 235 kts 273°
2026-05-06 12:13 -35.67740 -64.74463 9826 ft 235 kts 273°
2026-05-06 12:13 -35.67702 -64.76474 9826 ft 235 kts 273°
2026-05-06 12:13 -35.67662 -64.78484 9826 ft 235 kts 273°
2026-05-06 12:13 -35.67623 -64.80493 9826 ft 235 kts 273°
2026-05-06 12:14 -35.67583 -64.82501 9827 ft 234 kts 274°
2026-05-06 12:14 -35.67545 -64.84462 9822 ft 227 kts 274°
2026-05-06 12:14 -35.67504 -64.86401 9815 ft 227 kts 274°
2026-05-06 12:14 -35.67464 -64.88353 9813 ft 228 kts 274°
2026-05-06 12:15 -35.67423 -64.90303 9814 ft 228 kts 274°
2026-05-06 12:15 -35.67383 -64.92249 9814 ft 228 kts 274°
2026-05-06 12:15 -35.67342 -64.94196 9814 ft 228 kts 274°
2026-05-06 12:15 -35.67301 -64.96142 9815 ft 228 kts 274°
2026-05-06 12:16 -35.67259 -64.98095 9820 ft 229 kts 274°
2026-05-06 12:16 -35.67215 -65.00091 9825 ft 235 kts 273°
2026-05-06 12:16 -35.67173 -65.02096 9827 ft 234 kts 273°
2026-05-06 12:16 -35.67130 -65.04093 9828 ft 234 kts 273°
2026-05-06 12:17 -35.67086 -65.06094 9825 ft 234 kts 273°
2026-05-06 12:17 -35.67041 -65.08091 9825 ft 234 kts 273°
2026-05-06 12:17 -35.66997 -65.10089 9825 ft 234 kts 273°
2026-05-06 12:17 -35.66951 -65.12093 9825 ft 234 kts 273°
2026-05-06 12:18 -35.66906 -65.14095 9825 ft 234 kts 273°
2026-05-06 12:18 -35.66861 -65.16098 9826 ft 234 kts 273°
2026-05-06 12:18 -35.66815 -65.18100 9826 ft 234 kts 273°
2026-05-06 12:18 -35.66768 -65.20100 9826 ft 234 kts 273°
2026-05-06 12:19 -35.66722 -65.22078 9826 ft 234 kts 273°
2026-05-06 12:19 -35.66676 -65.24077 9826 ft 234 kts 273°
2026-05-06 12:19 -35.66628 -65.26098 9826 ft 234 kts 273°
2026-05-06 12:19 -35.66580 -65.28099 9826 ft 234 kts 273°
2026-05-06 12:20 -35.66532 -65.30096 9832 ft 234 kts 272°
2026-05-06 12:20 -35.66482 -65.32149 9830 ft 241 kts 272°
2026-05-06 12:20 -35.66433 -65.34204 9831 ft 241 kts 272°
2026-05-06 12:20 -35.66383 -65.36262 9829 ft 240 kts 272°
2026-05-06 12:21 -35.66332 -65.38322 9826 ft 241 kts 272°
2026-05-06 12:21 -35.66280 -65.40375 9826 ft 241 kts 272°
2026-05-06 12:21 -35.66230 -65.42405 9826 ft 241 kts 272°
2026-05-06 12:21 -35.66178 -65.44487 9826 ft 241 kts 272°
2026-05-06 12:22 -35.66126 -65.46517 9826 ft 241 kts 272°
2026-05-06 12:22 -35.66074 -65.48570 9827 ft 241 kts 272°
2026-05-06 12:22 -35.66021 -65.50628 9827 ft 240 kts 272°
2026-05-06 12:22 -35.65968 -65.52680 9827 ft 240 kts 272°
2026-05-06 12:23 -35.65915 -65.54737 9829 ft 241 kts 272°
2026-05-06 12:23 -35.65861 -65.56793 9830 ft 241 kts 272°
2026-05-06 12:23 -35.65807 -65.58848 9830 ft 241 kts 272°
2026-05-06 12:23 -35.65752 -65.60905 9830 ft 241 kts 272°
2026-05-06 12:24 -35.65697 -65.62973 9825 ft 245 kts 271°
2026-05-06 12:24 -35.65640 -65.65077 9829 ft 247 kts 271°
2026-05-06 12:24 -35.65583 -65.67183 9831 ft 246 kts 271°
2026-05-06 12:24 -35.65546 -65.68574 9831 ft 245 kts 271°
2026-05-06 12:25 -35.65488 -65.70670 9834 ft 245 kts 271°
2026-05-06 12:25 -35.65431 -65.72763 9832 ft 246 kts 271°
2026-05-06 12:25 -35.65373 -65.74863 9834 ft 245 kts 271°
2026-05-06 12:25 -35.65315 -65.76953 9830 ft 245 kts 272°
2026-05-06 12:26 -35.65259 -65.79009 9825 ft 238 kts 273°
2026-05-06 12:26 -35.65200 -65.81044 9813 ft 238 kts 273°
2026-05-06 12:26 -35.65142 -65.83079 9817 ft 239 kts 273°
2026-05-06 12:26 -35.65084 -65.85119 9811 ft 239 kts 273°
2026-05-06 12:27 -35.65026 -65.87159 9818 ft 239 kts 273°
2026-05-06 12:27 -35.64966 -65.89197 9816 ft 239 kts 273°
2026-05-06 12:27 -35.64907 -65.91237 9817 ft 239 kts 273°
2026-05-06 12:27 -35.64848 -65.93274 9822 ft 239 kts 273°
2026-05-06 12:28 -35.64787 -65.95346 9815 ft 244 kts 273°
2026-05-06 12:28 -35.64726 -65.97428 9810 ft 244 kts 273°
2026-05-06 12:28 -35.64664 -65.99510 9813 ft 243 kts 273°
2026-05-06 12:28 -35.64602 -66.01584 9817 ft 243 kts 273°
2026-05-06 12:29 -35.64539 -66.03657 9820 ft 243 kts 273°
2026-05-06 12:29 -35.64477 -66.05735 9814 ft 243 kts 273°
2026-05-06 12:29 -35.64413 -66.07818 9816 ft 244 kts 273°
2026-05-06 12:29 -35.64350 -66.09891 9821 ft 243 kts 273°
2026-05-06 12:30 -35.64285 -66.11974 9814 ft 244 kts 273°
2026-05-06 12:30 -35.64220 -66.14052 9814 ft 244 kts 273°
2026-05-06 12:30 -35.64156 -66.16135 9820 ft 244 kts 273°
2026-05-06 12:30 -35.64090 -66.18219 9822 ft 243 kts 273°
2026-05-06 12:31 -35.64025 -66.20294 9821 ft 243 kts 273°
2026-05-06 12:31 -35.63958 -66.22376 9818 ft 244 kts 273°
2026-05-06 12:31 -35.63892 -66.24451 9822 ft 243 kts 273°
2026-05-06 12:31 -35.63825 -66.26525 9822 ft 242 kts 273°
2026-05-06 12:32 -35.63759 -66.28564 9817 ft 242 kts 273°
2026-05-06 12:32 -35.63691 -66.30638 9821 ft 243 kts 273°
2026-05-06 12:32 -35.63623 -66.32749 9822 ft 244 kts 273°
2026-05-06 12:32 -35.63555 -66.34823 9822 ft 242 kts 273°
2026-05-06 12:33 -35.63487 -66.36873 9823 ft 245 kts 272°
2026-05-06 12:33 -35.63418 -66.38965 9817 ft 245 kts 273°
2026-05-06 12:33 -35.63348 -66.41072 9820 ft 243 kts 273°
2026-05-06 12:33 -35.63279 -66.43128 9817 ft 243 kts 273°
2026-05-06 12:34 -35.63209 -66.45196 9815 ft 243 kts 273°
2026-05-06 12:34 -35.63139 -66.47278 9820 ft 244 kts 273°
2026-05-06 12:34 -35.63069 -66.49352 9817 ft 242 kts 273°
2026-05-06 12:34 -35.62997 -66.51428 9818 ft 243 kts 273°
2026-05-06 12:35 -35.62926 -66.53490 9823 ft 241 kts 273°
2026-05-06 12:35 -35.62855 -66.55566 9822 ft 244 kts 273°
2026-05-06 12:35 -35.62783 -66.57648 9832 ft 242 kts 273°
2026-05-06 12:35 -35.62713 -66.59670 9825 ft 233 kts 273°
2026-05-06 12:36 -35.62643 -66.61649 9815 ft 232 kts 274°
2026-05-06 12:36 -35.62573 -66.63623 9809 ft 232 kts 273°
2026-05-06 12:36 -35.62503 -66.65607 9810 ft 232 kts 273°
2026-05-06 12:36 -35.62432 -66.67591 9804 ft 232 kts 274°
2026-05-06 12:37 -35.62362 -66.69572 9809 ft 232 kts 273°
2026-05-06 12:37 -35.62291 -66.71553 9811 ft 232 kts 273°
2026-05-06 12:37 -35.62219 -66.73536 9809 ft 237 kts 273°
2026-05-06 12:37 -35.62145 -66.75579 9808 ft 240 kts 273°
2026-05-06 12:38 -35.62071 -66.77626 9812 ft 239 kts 273°
2026-05-06 12:38 -35.61996 -66.79670 9818 ft 239 kts 273°
2026-05-06 12:38 -35.61921 -66.81724 9813 ft 241 kts 273°
2026-05-06 12:38 -35.61845 -66.83772 9820 ft 239 kts 273°
2026-05-06 12:39 -35.61770 -66.85818 9807 ft 241 kts 273°
2026-05-06 12:39 -35.61693 -66.87869 9809 ft 240 kts 273°
2026-05-06 12:39 -35.61616 -66.89924 9821 ft 240 kts 274°
2026-05-06 12:39 -35.61541 -66.91939 9811 ft 233 kts 274°
2026-05-06 12:40 -35.61466 -66.93924 9811 ft 233 kts 274°
2026-05-06 12:40 -35.61390 -66.95917 9809 ft 234 kts 274°
2026-05-06 12:40 -35.61315 -66.97911 9809 ft 234 kts 274°
2026-05-06 12:40 -35.61238 -66.99905 9803 ft 233 kts 274°
2026-05-06 12:41 -35.61162 -67.01897 9809 ft 234 kts 274°
2026-05-06 12:41 -35.61084 -67.03890 9807 ft 234 kts 274°
2026-05-06 12:41 -35.61009 -67.05858 9805 ft 234 kts 274°
2026-05-06 12:41 -35.60931 -67.07853 9807 ft 234 kts 274°
2026-05-06 12:42 -35.60853 -67.09848 9810 ft 234 kts 274°
2026-05-06 12:42 -35.60775 -67.11842 9810 ft 234 kts 274°
2026-05-06 12:42 -35.60696 -67.13835 9811 ft 233 kts 274°
2026-05-06 12:42 -35.60618 -67.15826 9802 ft 234 kts 274°
2026-05-06 12:43 -35.60537 -67.17849 9808 ft 234 kts 274°
2026-05-06 12:43 -35.60459 -67.19816 9809 ft 234 kts 274°
2026-05-06 12:43 -35.60380 -67.21807 9816 ft 234 kts 274°
2026-05-06 12:43 -35.60303 -67.23760 9816 ft 223 kts 276°
2026-05-06 12:44 -35.60226 -67.25642 9810 ft 219 kts 276°
2026-05-06 12:44 -35.60149 -67.27511 9803 ft 219 kts 276°
2026-05-06 12:44 -35.60073 -67.29380 9805 ft 219 kts 276°
2026-05-06 12:44 -35.59997 -67.31252 9802 ft 219 kts 276°
2026-05-06 12:45 -35.59920 -67.33121 9805 ft 219 kts 276°
2026-05-06 12:45 -35.59843 -67.34992 9805 ft 219 kts 276°
2026-05-06 12:45 -35.59688 -67.38729 9805 ft 219 kts 276°
2026-05-06 12:46 -35.59611 -67.40601 9801 ft 219 kts 276°
2026-05-06 12:46 -35.59532 -67.42478 9803 ft 219 kts 276°
2026-05-06 12:46 -35.59453 -67.44350 9803 ft 220 kts 276°
2026-05-06 12:46 -35.59375 -67.46224 9803 ft 219 kts 276°
2026-05-06 12:47 -35.59296 -67.48094 9803 ft 219 kts 276°
2026-05-06 12:47 -35.59217 -67.49961 9804 ft 219 kts 276°
2026-05-06 12:47 -35.59137 -67.51831 9803 ft 219 kts 276°
2026-05-06 12:47 -35.59058 -67.53700 9802 ft 220 kts 276°
2026-05-06 12:48 -35.58979 -67.55565 9818 ft 215 kts 278°
2026-05-06 12:48 -35.58901 -67.57389 9808 ft 212 kts 278°
2026-05-06 12:48 -35.58821 -67.59201 9804 ft 213 kts 278°
2026-05-06 12:48 -35.58742 -67.61019 9804 ft 213 kts 278°
2026-05-06 12:49 -35.58663 -67.62840 9799 ft 213 kts 278°
2026-05-06 12:49 -35.58584 -67.64658 9799 ft 213 kts 278°
2026-05-06 12:49 -35.58504 -67.66477 9799 ft 213 kts 278°
2026-05-06 12:49 -35.58424 -67.68297 9797 ft 213 kts 278°
2026-05-06 12:50 -35.58344 -67.70113 9779 ft 213 kts 278°
2026-05-06 12:50 -35.58260 -67.71974 9797 ft 222 kts 277°
2026-05-06 12:50 -35.58179 -67.73837 9801 ft 221 kts 277°
2026-05-06 12:50 -35.58096 -67.75717 9797 ft 220 kts 277°
2026-05-06 12:51 -35.58011 -67.77605 9800 ft 221 kts 277°
2026-05-06 12:51 -35.57927 -67.79494 9794 ft 221 kts 277°
2026-05-06 12:51 -35.57842 -67.81378 9790 ft 221 kts 277°
2026-05-06 12:51 -35.57757 -67.83266 9791 ft 221 kts 277°
2026-05-06 12:52 -35.57672 -67.85149 9791 ft 220 kts 277°
2026-05-06 12:52 -35.57586 -67.87030 9787 ft 221 kts 277°
2026-05-06 12:52 -35.57500 -67.88916 9785 ft 221 kts 277°
2026-05-06 12:52 -35.57413 -67.90803 9788 ft 221 kts 277°
2026-05-06 12:53 -35.57327 -67.92686 9791 ft 221 kts 277°
2026-05-06 12:53 -35.57240 -67.94578 9780 ft 222 kts 277°
2026-05-06 12:53 -35.57153 -67.96459 9783 ft 221 kts 277°
2026-05-06 12:53 -35.57065 -67.98348 9777 ft 221 kts 277°
2026-05-06 12:54 -35.56978 -68.00238 9781 ft 221 kts 277°
2026-05-06 12:54 -35.56890 -68.02122 9775 ft 221 kts 277°
2026-05-06 12:54 -35.56801 -68.04004 9778 ft 221 kts 277°
2026-05-06 12:54 -35.56713 -68.05887 9783 ft 221 kts 277°
2026-05-06 12:55 -35.56625 -68.07767 9780 ft 221 kts 277°
2026-05-06 12:55 -35.56535 -68.09653 9781 ft 222 kts 277°
2026-05-06 12:55 -35.56445 -68.11545 9773 ft 222 kts 277°
2026-05-06 12:55 -35.56352 -68.13442 9781 ft 222 kts 277°
2026-05-06 12:56 -35.56265 -68.15329 9787 ft 221 kts 277°
2026-05-06 12:56 -35.56176 -68.17207 9785 ft 220 kts 277°
2026-05-06 12:56 -35.56086 -68.19087 9786 ft 220 kts 277°
2026-05-06 12:56 -35.55998 -68.20959 9780 ft 217 kts 281°
2026-05-06 12:57 -35.55910 -68.22775 9776 ft 216 kts 281°
2026-05-06 12:57 -35.55819 -68.24623 9782 ft 217 kts 281°
2026-05-06 12:57 -35.55727 -68.26475 9779 ft 217 kts 281°
2026-05-06 12:57 -35.55638 -68.28324 9780 ft 217 kts 280°
2026-05-06 12:58 -35.55548 -68.30168 9785 ft 216 kts 280°
2026-05-06 12:58 -35.55457 -68.32017 9784 ft 217 kts 280°
2026-05-06 12:58 -35.55366 -68.33868 9791 ft 217 kts 280°
2026-05-06 12:58 -35.55275 -68.35713 9793 ft 216 kts 281°
2026-05-06 12:59 -35.55184 -68.37553 9791 ft 215 kts 281°
2026-05-06 12:59 -35.55093 -68.39390 9792 ft 216 kts 281°
2026-05-06 12:59 -35.54998 -68.41226 9796 ft 216 kts 281°
2026-05-06 12:59 -35.54907 -68.43078 9786 ft 217 kts 281°
2026-05-06 13:00 -35.54818 -68.44936 9793 ft 220 kts 281°
2026-05-06 13:00 -35.54733 -68.46529 9812 ft 219 kts 279°
2026-05-06 13:00 -35.54628 -68.47251 10485 ft 96 kts 307°
2026-05-06 13:01 -35.54123 -68.47507 10038 ft 109 kts 352°
2026-05-06 13:01 -35.54329 -68.47553 10290 ft 1 kts